This is the latest recevied weather packets stored in our database for station/object KC2WGU. If no packets are shown the sender has not sent any weather packets the latest 10 day(s).
| Time | Temp. | Humidity | Pressure | Rain* | Wind** | Luminosity | Snow |
|---|---|---|---|---|---|---|---|
| 1777848621 | 10° C | 50% | 1007.3 hPa | 0 mm | - | 0 W/m² | - |
| 1777848021 | 10° C | 50% | 1007.3 hPa | 0 mm | - | 0 W/m² | - |
| 1777847422 | 10° C | 49% | 1007.3 hPa | 0 mm | - | 0 W/m² | - |
| 1777846821 | 10° C | 48% | 1007.2 hPa | 0 mm | - | 0 W/m² | - |
| 1777846222 | 10.56° C | 46% | 1007.1 hPa | 0 mm | - | 0 W/m² | - |
| 1777845623 | 10.56° C | 44% | 1007.2 hPa | 0 mm | - | 0 W/m² | - |
| 1777845022 | 10.56° C | 45% | 1007.1 hPa | 0 mm | - | 0 W/m² | - |
| 1777844422 | 10.56° C | 44% | 1007.1 hPa | 0 mm | - | 0 W/m² | - |
| 1777843822 | 10.56° C | 41% | 1007.1 hPa | 0 mm | - | 0 W/m² | - |
| 1777843222 | 10.56° C | 40% | 1007 hPa | 0 mm | - | 0 W/m² | - |
| 1777842621 | 11.11° C | 40% | 1006.8 hPa | 0 mm | - | 0 W/m² | - |
| 1777842021 | 11.11° C | 38% | 1006.8 hPa | 0 mm | - | 0 W/m² | - |
| 1777841421 | 11.67° C | 36% | 1006.8 hPa | 0 mm | - | 0 W/m² | - |
| 1777840822 | 11.67° C | 36% | 1007.1 hPa | 0 mm | - | 0 W/m² | - |
| 1777840222 | 11.67° C | 35% | 1007.1 hPa | 0 mm | - | 0 W/m² | - |
| 1777839622 | 11.67° C | 36% | 1007.4 hPa | 0 mm | - | 0 W/m² | - |
| 1777839021 | 11.67° C | 35% | 1007.4 hPa | 0 mm | - | 0 W/m² | - |
| 1777838421 | 11.67° C | 35% | 1007.4 hPa | 0 mm | - | 0 W/m² | - |
| 1777837822 | 11.11° C | 39% | 1007.8 hPa | 0 mm | - | 0 W/m² | - |
| 1777837221 | 11.11° C | 41% | 1007.8 hPa | 0 mm | - | 0 W/m² | - |
| 1777836622 | 10.56° C | 38% | 1007.8 hPa | 0 mm | - | 0 W/m² | - |
| 1777836021 | 10.56° C | 41% | 1007.8 hPa | 0 mm | - | 0 W/m² | - |
| 1777835422 | 10.56° C | 40% | 1007.8 hPa | 0 mm | - | 0 W/m² | - |
| 1777834822 | 10.56° C | 38% | 1008 hPa | 0 mm | - | 0 W/m² | - |
| 1777834222 | 10.56° C | 40% | 1008.2 hPa | 0 mm | - | 0 W/m² | - |
* Rain latest hour (hover to see other rain measurements)
** Current wind speed in m/s (hover to see current wind gust speed)